Temp
70 75 76 74 74 73 72 71 72 72 72 73 73 72 73 75 75 71 71 71 71 70 72 71 71 70 70 70 70 69 69 67 65 69 69 71 71 71 72 71 70 69 68
74 72 75 75 75 73 73 72 72 71 71 72 72 72 72 73 73 72 72 73 71 70 71 70 71 73 70 70 70 69 69 69 68 67 68 69 71 71 71 70 70 71 67
70 72 72 73 75 75 75 76 72 72 71 71 71 70 71 71 72 72 72 71 71 71 70 70 70 69 69 69 69 68 69 69 68 66 67 68 69 69 69 68 68 68 68
67 68 70 72 72 72 72 72 72 72 71 69 70 70 70 69 69 70 71 70 70 71 72 71 71 70 70 70 69 69 69 69 68 67 67 67 68 69 69 67 69 67 66
68 67 69 71 72 71 71 69 69 69 70 70 69 68 69 69 72 67 69 70 70 70 71 72 72 72 72 70 69 69 69 68 67 67 66 66 67 67 67 67 66 67 64
69 70 71 71 70 70 71 70 69 68 68 68 69 68 68 70 69 67 70 71 71 71 70 70 71 72 71 69 68 68 69 69 67 65 66 66 66 67 67 67 66 66 65
68 69 69 68 69 68 69 69 70 69 68 67 67 68 68 70 68 68 70 70 70 70 70 70 71 75 71 72 68 67 66 66 67 67 66 66 67 67 67 66 66 65 64
66 66 67 67 66 66 68 68 69 69 69 67 66 67 68 69 66 65 68 70 71 71 71 71 70 70 70 71 69 69 69 67 65 68 67 66 67 65 65 67 65 65 62
66 67 67 68 67 67 67 67 66 65 65 64 65 66 67 68 61 61 64 67 68 68 69 70 70 70 67 64 69 68 67 61 61 61 62 62 62 62 62 65 65 65 65
62 64 65 65 66 66 65 65 65 66 66 66 67 66 66 65 60 60 62 66 67 67 66 66 61 63 60 60 67 67 65 63 59 60 60 60 60 60 62 61 62 61 61
63 64 64 64 63 63 64 65 65 66 65 63 62 61 61 61 59 58 60 65 66 66 67 64 63 58 57 58 60 66 65 61 61 61 59 58 59 59 58 59 59 60 60
66 67 66 64 65 65 65 63 63 65 64 62 61 60 60 59 58 57 58 59 62 66 64 62 61 58 57 57 59 58 58 61 61 59 57 56 56 56 57 58 58 58 58
63 64 65 65 65 65 65 65 64 65 63 61 61 59 59 59 58 56 55 58 58 61 60 57 54 53 55 58 59 59 60 61 59 57 55 55 55 56 56 57 57 58 57
63 62 64 62 60 60 61 62 63 63 62 62 60 59 59 59 59 59 58 58 57 58 58 59 58 58 57 58 59 59 59 59 58 56 55 54 54 54 54 53 53 54 54
63 61 61 60 58 55 51 52 56 53 53 60 61 59 59 58 58 54 56 59 59 57 58 59 58 57 56 55 55 55 54 55 53 51 51 50 50 51 50 52 52 51 51
61 61 59 57 53 55 55 53 49 47 46 46 47 54 54 50 48 47 46 47 49 52 59 58 57 56 55 54 55 54 52 53 50 50 50 50 50 50 50 50 51 50 50
62 61 57 55 54 53 54 55 54 52 47 45 44 47 47 46 44 43 44 46 48 52 57 56 57 57 55 56 55 54 55 51 51 50 50 50 50 50 50 50 50 50 50
61 57 59 57 56 55 56 58 57 55 53 52 48 48 45 43 43 43 44 49 58 57 59 56 55 55 55 56 55 53 52 52 50 50 50 50 51 50 49 50 49 49 50
62 59 59 59 60 57 58 57 55 55 54 53 52 49 46 44 43 44 44 55 56 57 57 57 56 56 55 56 54 53 52 51 51 51 50 51 50 50 49 50 49 50 50
60 60 59 60 59 58 58 58 57 56 55 55 57 56 51 50 51 52 53 53 54 55 56 56 56 56 55 55 54 52 52 51 51 51 51 51 50 50 51 51 51 51 49
59 59 60 59 58 58 58 58 57 58 59 58 55 55 49 52 53 53 53 53 54 55 56 56 56 56 55 54 52 52 52 52 51 51 51 51 51 50 50 50 50 49 49
60 59 59 59 59 58 58 58 58 58 58 57 56 54 46 52 53 54 54 55 55 56 56 57 57 56 56 55 53 53 52 52 52 51 51 51 51 50 50 50 50 50 49
60 60 59 59 59 58 58 58 58 57 57 57 57 55 52 52 53 54 55 56 56 56 56 56 57 56 56 56 56 55 54 54 54 53 53 52 50 50 50 50 50 49 50
61 61 60 59 59 58 58 58 57 54 58 58 58 57 55 54 55 56 56 57 57 57 57 56 56 58 57 56 55 55 55 55 54 54 55 53 51 50 51 51 52 52 51
60 59 59 59 60 59 58 58 58 59 58 58 58 58 56 55 55 57 57 57 57 57 58 57 57 58 60 58 57 56 52 46 52 49 53 53 53 53 52 52 52 52 51
60 60 60 58 57 58 57 58 58 58 59 60 59 57 57 57 57 56 57 57 57 57 59 59 59 60 61 61 60 54 42 38 47 43 55 54 53 52 52 53 54 52 52
MSLP
1012.36 1012.65 1012.90 1013.19 1013.46 1013.67 1014.05 1014.25 1014.58 1014.84 1015.08 1015.35 1015.50 1015.75 1016.02 1016.14 1016.27 1016.73 1017.20 1017.62 1017.96 1018.00 1017.88 1018.00 1018.15 1018.26 1018.26 1018.33 1018.45 1018.59 1018.74 1019.01 1018.92 1018.25 1017.97 1017.50 1017.47 1017.50 1017.55 1017.78 1017.89 1017.88 1018.04
1011.57 1012.16 1012.31 1012.45 1012.83 1013.10 1013.38 1013.78 1014.16 1014.44 1014.66 1014.89 1015.26 1015.63 1015.85 1015.84 1015.87 1016.26 1016.63 1017.01 1017.42 1017.77 1017.83 1017.89 1017.92 1018.07 1018.10 1018.20 1018.24 1018.35 1018.32 1018.20 1018.36 1018.37 1018.07 1017.78 1017.50 1017.27 1017.18 1017.41 1017.44 1017.56 1017.89
1011.26 1011.56 1011.83 1011.86 1012.17 1012.49 1012.75 1013.30 1013.88 1014.13 1014.39 1014.62 1014.98 1015.22 1015.60 1015.76 1015.74 1015.83 1016.04 1016.48 1016.84 1017.12 1017.37 1017.50 1017.46 1017.59 1017.72 1017.84 1017.87 1018.09 1017.98 1017.82 1017.99 1018.19 1018.10 1017.79 1017.54 1017.32 1017.31 1017.34 1017.49 1017.46 1017.76
1010.78 1011.08 1011.25 1011.40 1011.81 1012.31 1012.80 1013.22 1013.77 1013.70 1013.89 1014.26 1014.44 1014.68 1015.01 1015.49 1015.61 1015.73 1015.85 1016.05 1016.28 1016.51 1016.64 1016.85 1016.98 1017.10 1017.19 1017.26 1017.54 1017.50 1017.63 1017.75 1017.82 1017.86 1017.90 1017.81 1017.69 1017.37 1017.34 1017.42 1017.59 1017.74 1018.07
1010.07 1010.44 1010.42 1010.62 1011.24 1011.90 1011.79 1012.13 1013.76 1014.00 1013.59 1013.52 1014.12 1014.60 1014.83 1015.25 1015.55 1015.62 1015.84 1015.81 1015.95 1016.07 1016.12 1016.18 1016.31 1016.38 1016.56 1016.73 1017.07 1017.05 1017.24 1017.42 1017.55 1017.65 1017.71 1017.68 1017.61 1017.49 1017.36 1017.14 1017.39 1017.64 1018.13
1009.66 1009.67 1009.76 1010.02 1010.66 1011.35 1011.49 1012.12 1012.83 1013.06 1013.17 1013.45 1013.53 1013.90 1014.53 1014.84 1014.90 1015.10 1015.25 1015.33 1015.32 1015.49 1015.70 1015.63 1015.75 1015.87 1015.95 1016.13 1016.26 1016.41 1016.73 1016.90 1017.09 1017.45 1017.25 1017.38 1017.27 1017.20 1017.05 1017.12 1017.29 1017.66 1018.05
1009.46 1009.47 1009.63 1009.97 1009.98 1010.42 1010.94 1011.70 1011.94 1012.17 1012.29 1012.89 1013.10 1013.61 1013.80 1013.92 1014.15 1014.26 1014.34 1014.61 1014.74 1014.78 1014.97 1015.13 1015.24 1015.38 1015.45 1015.66 1015.78 1015.91 1016.15 1016.27 1016.44 1016.69 1016.79 1016.93 1016.90 1016.83 1017.01 1017.04 1017.15 1017.35 1017.54
1009.81 1009.73 1009.80 1010.06 1010.26 1010.51 1010.73 1011.03 1011.29 1011.68 1012.14 1012.48 1013.00 1013.44 1013.68 1013.44 1013.58 1013.51 1013.59 1013.66 1013.95 1014.04 1014.12 1014.41 1014.56 1014.70 1014.83 1015.23 1015.55 1015.76 1015.79 1015.94 1016.18 1016.20 1016.22 1016.45 1016.59 1016.74 1016.87 1016.83 1016.95 1017.27 1017.65
1010.01 1010.00 1010.18 1010.29 1010.42 1010.78 1011.29 1011.46 1011.67 1012.07 1012.35 1012.64 1012.74 1012.94 1012.91 1012.71 1013.10 1013.17 1013.33 1013.26 1013.44 1013.53 1013.55 1013.75 1013.96 1014.05 1014.25 1014.52 1015.00 1015.30 1015.57 1016.07 1016.18 1016.02 1016.13 1016.45 1016.71 1016.86 1016.82 1016.85 1016.97 1017.23 1017.47
1010.51 1010.53 1010.47 1010.46 1010.68 1010.97 1011.27 1011.55 1011.84 1012.02 1012.14 1012.15 1012.09 1012.23 1012.18 1012.43 1012.94 1013.31 1013.20 1013.10 1013.20 1013.61 1013.59 1013.73 1013.86 1013.99 1013.94 1014.19 1014.46 1014.75 1015.33 1015.73 1016.24 1016.50 1016.71 1016.77 1016.95 1017.18 1016.99 1016.96 1016.98 1017.11 1017.48
1010.90 1011.13 1011.22 1011.12 1011.19 1011.36 1011.59 1011.73 1011.80 1011.88 1012.09 1012.23 1012.47 1012.79 1012.49 1012.58 1012.97 1013.07 1012.95 1012.89 1012.96 1013.20 1013.30 1013.45 1013.77 1013.95 1014.15 1014.07 1014.09 1014.29 1014.69 1015.22 1016.02 1016.34 1016.74 1017.12 1017.34 1017.34 1017.36 1017.21 1017.13 1017.16 1017.38
1011.22 1011.37 1011.53 1011.62 1011.60 1011.56 1011.66 1011.87 1011.92 1012.04 1012.40 1012.78 1013.02 1013.21 1013.21 1012.67 1012.68 1013.02 1013.33 1012.82 1013.42 1013.14 1013.20 1013.45 1013.76 1013.99 1014.06 1014.18 1014.12 1014.10 1014.48 1014.99 1015.61 1016.25 1016.72 1017.25 1017.58 1017.65 1017.70 1017.51 1017.63 1017.22 1017.30
1011.44 1011.61 1011.75 1011.78 1011.95 1012.05 1012.10 1012.23 1012.44 1012.62 1012.88 1013.17 1013.30 1013.38 1013.46 1012.98 1012.98 1012.40 1012.59 1012.78 1013.78 1013.32 1013.57 1013.85 1014.16 1014.36 1014.25 1014.43 1014.51 1014.65 1014.85 1015.24 1015.56 1016.14 1016.79 1017.39 1017.81 1017.90 1017.88 1017.83 1018.04 1017.81 1018.02
1011.57 1011.84 1012.06 1012.19 1012.38 1012.58 1012.61 1012.54 1012.89 1013.08 1013.22 1013.32 1013.50 1013.63 1013.40 1013.22 1012.84 1012.52 1013.58 1014.02 1013.81 1013.86 1014.46 1014.49 1014.46 1014.74 1014.74 1014.92 1014.89 1015.14 1015.41 1015.61 1015.77 1016.42 1016.98 1017.44 1018.17 1018.43 1018.54 1018.42 1018.66 1018.60 1018.84
1011.82 1012.10 1012.33 1012.63 1012.84 1013.15 1013.52 1013.73 1013.68 1013.70 1013.79 1013.72 1013.64 1013.68 1013.80 1013.88 1013.98 1014.21 1014.43 1014.56 1014.50 1014.64 1014.72 1015.02 1015.07 1015.19 1015.35 1015.21 1015.61 1015.38 1015.83 1016.37 1017.02 1017.19 1017.62 1018.14 1018.44 1018.60 1018.78 1018.56 1018.77 1019.10 1019.18
1011.90 1012.31 1012.55 1012.99 1013.32 1013.61 1013.92 1014.07 1014.12 1014.06 1013.84 1013.86 1013.78 1013.96 1014.38 1014.41 1014.59 1014.71 1014.87 1014.89 1014.96 1014.96 1015.00 1015.37 1015.71 1015.82 1015.99 1016.07 1016.22 1016.15 1016.65 1017.40 1017.42 1017.34 1018.05 1018.41 1018.58 1018.66 1018.74 1018.92 1019.03 1019.42 1019.49
1011.65 1012.14 1012.68 1013.18 1013.63 1013.91 1014.12 1014.25 1014.40 1014.59 1014.31 1014.17 1014.43 1014.60 1014.77 1014.98 1014.97 1015.07 1015.32 1015.22 1015.18 1015.02 1015.21 1015.68 1015.98 1016.18 1016.19 1016.20 1016.53 1016.96 1017.36 1017.48 1017.40 1017.58 1018.01 1018.54 1018.77 1018.96 1019.10 1019.28 1019.41 1019.63 1019.72
1011.57 1012.01 1012.40 1012.78 1013.31 1013.76 1014.06 1014.26 1014.34 1014.47 1014.75 1015.03 1015.09 1015.11 1015.18 1015.42 1015.61 1015.67 1015.56 1015.51 1015.52 1015.38 1015.54 1015.82 1016.23 1016.33 1016.30 1016.39 1016.84 1017.02 1017.22 1017.50 1017.83 1017.99 1018.29 1018.47 1018.71 1018.96 1019.18 1019.41 1019.52 1019.56 1019.56
1011.34 1011.99 1012.34 1012.68 1012.99 1013.30 1013.65 1014.09 1014.40 1014.55 1014.71 1014.95 1015.35 1015.53 1015.66 1015.77 1015.82 1015.90 1015.70 1015.66 1015.63 1015.64 1015.64 1015.91 1015.99 1016.12 1016.33 1016.47 1016.86 1017.10 1017.34 1017.50 1017.69 1018.06 1018.29 1018.48 1018.66 1018.92 1019.10 1019.27 1019.52 1019.46 1019.54
1011.50 1011.88 1012.21 1012.56 1012.89 1013.19 1013.38 1013.66 1013.95 1014.22 1014.46 1014.64 1014.82 1015.00 1015.52 1015.91 1015.98 1015.82 1015.70 1015.58 1015.45 1015.38 1015.34 1015.60 1015.85 1016.01 1016.27 1016.55 1016.82 1016.97 1017.31 1017.65 1017.82 1017.98 1018.25 1018.47 1018.60 1018.80 1018.98 1019.06 1019.22 1019.25 1019.34
1011.60 1012.04 1012.27 1012.59 1012.84 1013.05 1013.26 1013.41 1013.47 1013.69 1013.81 1014.06 1014.33 1014.33 1014.57 1014.90 1015.15 1015.27 1015.31 1015.36 1015.41 1015.43 1015.35 1015.43 1015.53 1015.72 1015.96 1016.23 1016.50 1016.88 1017.23 1017.43 1017.52 1017.72 1018.04 1018.10 1018.26 1018.46 1018.49 1018.69 1018.86 1018.99 1019.23
1011.55 1011.95 1012.38 1012.63 1012.76 1012.96 1013.21 1013.25 1013.38 1013.59 1013.72 1013.99 1014.07 1014.21 1014.59 1014.89 1014.97 1015.02 1015.01 1014.92 1014.78 1014.69 1014.67 1014.90 1015.15 1015.31 1015.43 1015.72 1016.12 1016.46 1016.76 1016.92 1017.08 1017.31 1017.53 1017.69 1017.91 1018.02 1018.30 1018.56 1018.63 1018.78 1018.84
1011.40 1011.83 1012.26 1012.42 1012.55 1012.89 1013.12 1013.15 1013.08 1013.19 1013.35 1013.57 1013.81 1014.08 1014.33 1014.34 1014.38 1014.38 1014.35 1014.19 1014.18 1014.11 1014.10 1014.42 1014.63 1014.83 1014.91 1015.14 1015.37 1015.62 1015.91 1016.03 1016.10 1016.50 1016.96 1017.23 1017.48 1017.75 1018.03 1018.27 1018.38 1018.44 1018.49
1010.98 1011.49 1011.83 1012.00 1012.22 1012.42 1012.65 1012.86 1012.88 1012.72 1012.78 1013.05 1013.28 1013.41 1013.65 1013.80 1013.88 1013.80 1013.68 1013.58 1013.47 1013.39 1013.44 1013.64 1013.86 1014.06 1014.16 1014.52 1014.77 1015.00 1015.08 1015.14 1015.58 1015.87 1016.12 1016.67 1017.10 1017.38 1017.60 1017.71 1017.81 1017.90 1018.12
1010.79 1011.09 1011.34 1011.50 1011.59 1011.68 1011.89 1012.12 1012.23 1012.10 1012.17 1012.30 1012.52 1012.77 1012.83 1013.01 1013.20 1013.20 1013.17 1013.16 1013.11 1013.14 1013.21 1013.24 1013.40 1013.49 1013.61 1013.86 1014.12 1014.32 1014.42 1014.57 1014.83 1015.03 1015.49 1015.91 1016.40 1016.70 1016.92 1017.15 1017.45 1017.65 1017.90
1010.55 1010.78 1010.92 1011.03 1011.06 1011.13 1011.25 1011.45 1011.68 1011.74 1011.73 1011.63 1011.77 1011.97 1012.02 1012.16 1012.29 1012.49 1012.60 1012.79 1012.91 1012.89 1012.78 1012.74 1012.86 1012.97 1012.87 1012.94 1013.11 1013.34 1013.67 1013.95 1014.28 1014.43 1014.63 1015.26 1015.79 1016.15 1016.40 1016.61 1016.86 1017.20 1017.45
Wind_Speed
8 10 11 10 10 8 9 8 8 6 6 7 7 7 8 8 8 6 5 5 6 5 4 5 6 2 3 3 2 3 3 4 4 3 2 1 3 4 4 4 5 5 4
12 11 12 10 10 10 11 9 8 7 6 7 6 6 6 8 7 7 7 6 6 6 6 5 7 4 6 5 3 6 4 4 3 4 2 2 4 2 3 4 4 3 3
9 9 11 10 11 13 12 11 8 8 6 6 5 6 7 8 7 7 8 7 7 7 7 7 7 5 5 4 5 4 4 3 3 2 3 2 2 1 1 1 1 1 1
8 9 9 11 10 7 4 5 6 8 8 7 7 8 7 6 6 6 7 7 7 7 7 6 7 6 7 6 5 6 4 4 3 3 2 2 3 1 1 2 1 1 1
10 11 16 12 9 9 8 5 0 5 6 6 6 6 5 5 7 8 7 7 8 7 7 6 7 8 10 8 4 5 4 4 3 3 3 2 2 2 3 2 3 2 1
9 12 12 11 11 11 11 13 9 6 4 3 6 8 7 7 11 13 12 9 8 7 8 7 6 8 9 11 11 11 7 5 4 3 3 4 4 3 2 2 2 3 3
4 7 6 6 9 9 12 11 12 11 8 7 4 4 8 9 13 16 15 8 8 8 8 7 6 6 8 7 9 8 8 9 6 3 5 5 3 3 1 2 4 3 2
1 1 1 3 5 4 6 8 8 9 12 7 6 6 6 6 14 15 16 10 8 9 9 8 7 8 7 7 6 6 5 3 2 3 5 3 1 1 3 1 0 2 2
4 4 3 2 4 5 5 4 3 3 3 4 5 9 10 7 9 9 9 7 8 8 7 6 7 7 10 12 7 7 5 2 4 5 10 10 8 6 1 2 2 3 3
3 3 4 4 3 4 5 5 4 3 4 2 4 8 9 7 7 4 3 3 3 4 4 4 4 6 6 8 7 6 6 5 6 5 5 5 6 5 7 4 0 3 2
4 4 4 3 2 0 3 2 3 4 3 4 5 4 3 6 4 1 5 2 4 3 4 3 3 4 6 8 7 5 5 8 9 6 5 3 3 3 3 3 3 1 2
4 4 4 4 2 2 2 2 2 4 4 2 2 0 2 3 5 6 2 1 5 4 3 2 3 6 6 4 3 5 9 7 5 5 4 3 3 3 3 4 4 5 5
5 5 5 4 4 3 3 3 2 3 4 3 2 2 2 1 2 11 8 6 1 2 3 5 6 6 8 7 7 7 5 4 5 5 5 3 2 2 2 3 4 7 7
5 5 4 4 4 4 3 3 3 2 2 2 2 2 1 2 4 6 3 3 8 7 6 4 6 7 9 5 6 5 3 3 4 5 4 4 3 2 1 2 2 2 3
4 4 5 3 4 4 4 4 3 2 2 1 1 2 2 3 1 1 3 3 3 5 6 3 3 2 4 4 3 5 5 5 3 3 4 3 3 2 1 2 2 1 2
5 4 4 4 3 3 2 3 8 7 5 5 6 3 2 4 7 5 7 9 8 6 3 3 2 3 3 3 3 5 4 4 3 4 4 3 3 3 3 1 2 2 3
5 5 4 4 4 4 3 3 3 5 10 12 9 7 6 6 7 8 8 7 6 3 3 3 2 2 2 2 3 3 3 2 3 4 4 3 3 3 2 2 2 1 1
6 7 5 4 4 4 3 3 3 4 3 2 7 6 8 8 8 7 5 2 2 2 2 3 3 3 2 3 3 2 3 3 2 3 4 4 4 3 2 2 2 1 1
5 4 4 4 4 4 4 4 3 3 3 3 2 2 3 6 5 3 3 1 2 2 2 3 3 3 3 2 3 3 3 4 4 3 3 3 3 2 2 2 2 4 1
4 6 5 4 3 3 3 3 3 4 4 3 3 4 4 3 3 3 3 2 2 2 2 3 3 4 4 4 4 4 4 3 3 3 3 3 3 2 2 2 2 2 3
4 4 5 4 4 4 3 4 4 3 3 3 4 4 8 4 5 4 4 4 4 4 4 4 4 4 4 4 4 4 4 4 4 4 4 4 4 3 3 3 2 2 3
4 4 3 4 4 3 3 4 4 3 3 3 3 3 10 3 3 4 4 4 5 5 4 4 4 5 5 5 5 5 5 5 4 5 4 4 3 3 3 2 2 3 3
4 4 4 3 3 4 4 4 4 4 5 5 4 4 4 4 5 5 5 5 5 5 5 5 5 5 5 5 5 6 6 6 6 5 5 5 4 4 4 3 4 3 3
5 5 5 5 4 4 4 5 5 7 5 5 5 5 6 5 5 6 5 5 5 5 4 5 5 7 6 5 5 5 5 5 4 6 8 5 5 5 4 3 4 4 3
5 4 5 5 5 6 5 5 5 5 5 5 5 5 5 5 5 6 6 5 5 5 6 5 5 7 9 10 9 9 10 12 8 9 6 7 7 8 5 4 3 3 3
5 5 5 4 5 5 5 5 6 5 6 5 5 5 6 6 6 5 5 5 5 5 6 5 7 11 11 9 11 12 11 11 10 11 7 6 7 6 5 6 8 4 5
Wind_Direction
196 213 214 207 211 203 205 206 211 207 203 205 209 205 215 210 198 194 217 225 230 250 246 214 232 239 261 247 232 218 214 190 209 300 266 240 210 204 199 186 200 200 201
207 206 215 208 206 203 212 206 200 209 211 207 206 216 221 219 191 194 209 209 209 222 237 228 237 211 235 242 213 231 229 202 177 225 272 298 244 244 214 190 196 191 202
193 200 214 212 209 216 215 209 195 199 213 210 197 196 217 216 199 198 199 207 206 220 222 219 234 219 236 223 220 218 243 220 207 194 258 250 277 235 321 313 180 189 198
180 204 221 218 218 223 214 222 198 203 200 214 203 201 210 213 211 212 198 206 216 218 225 221 227 221 231 227 233 222 212 229 218 213 242 268 253 269 203 196 207 138 160
190 206 224 224 199 182 131 71 249 247 225 197 204 222 206 199 223 209 222 219 217 220 226 228 230 218 223 231 215 244 226 213 216 222 234 234 246 250 220 206 209 142 170
199 211 216 212 205 194 172 171 164 193 160 198 203 201 213 223 237 221 216 216 214 217 227 232 234 232 233 234 228 228 211 209 224 213 221 221 244 229 213 223 189 170 239
214 232 219 205 210 176 173 184 193 200 173 179 186 215 218 224 230 233 218 217 217 217 219 221 230 234 226 229 230 230 224 230 222 213 237 225 241 219 127 257 217 214 209
57 328 57 167 168 191 185 198 194 201 209 182 183 209 234 233 232 234 232 221 225 222 214 217 215 233 225 212 216 231 210 177 221 207 221 212 127 133 200 206 134 108 82
34 27 37 98 135 159 192 193 127 158 196 205 210 213 220 239 216 230 220 209 218 225 217 216 214 215 222 212 203 216 187 144 42 107 100 101 89 68 345 191 208 192 192
58 26 14 47 88 115 130 142 150 191 200 235 259 249 241 161 156 190 228 217 202 240 247 202 26 273 168 194 209 195 194 184 146 127 109 83 70 54 46 42 118 198 175
111 94 70 24 347 301 159 153 170 144 96 86 85 25 58 104 79 281 227 223 232 218 220 169 142 152 183 184 195 189 204 147 158 144 116 94 74 60 38 39 39 13 132
145 125 102 84 74 81 188 186 200 127 120 124 121 152 327 106 112 82 293 46 263 243 179 149 126 168 159 152 106 102 136 132 137 123 112 103 83 62 40 46 34 64 62
118 105 91 73 55 62 93 108 121 144 147 158 169 151 159 337 112 81 53 48 322 72 51 86 97 109 102 80 81 96 109 114 132 125 118 101 93 95 70 52 47 63 64
124 117 98 91 77 45 40 44 86 107 133 135 141 172 119 41 35 55 83 95 93 95 105 86 92 79 78 75 77 61 53 102 121 127 124 109 116 103 96 75 67 53 68
122 141 119 111 102 89 60 24 23 46 355 44 155 138 120 121 116 105 142 140 121 119 108 67 61 62 70 76 64 86 70 54 78 79 102 113 113 118 75 51 82 53 93
148 166 136 119 110 104 108 88 47 22 22 66 29 83 50 108 121 107 112 109 113 122 87 101 89 80 102 112 95 74 69 129 127 108 115 130 132 127 112 77 77 92 116
157 156 143 141 148 153 153 143 120 19 35 34 41 52 66 116 94 93 95 88 60 59 84 107 119 125 125 110 118 141 146 143 118 117 122 133 126 113 111 103 95 112 97
163 161 159 165 158 163 166 176 160 158 147 96 24 41 63 75 76 77 55 65 71 47 111 141 181 195 177 161 161 137 130 122 117 131 141 150 140 137 134 151 176 154 143
130 151 166 165 168 183 168 152 164 167 162 142 135 66 69 69 70 51 14 108 163 176 158 173 177 175 186 179 151 150 150 160 155 150 152 155 150 138 149 169 219 217 176
141 156 150 152 159 171 167 171 182 188 186 179 178 170 153 148 196 209 210 198 206 231 195 183 185 177 179 171 164 153 150 156 161 161 162 163 164 176 205 236 212 180 190
156 167 156 147 171 184 182 195 200 214 215 187 183 183 176 170 186 195 198 204 208 215 208 198 191 191 181 167 156 160 171 179 179 175 178 183 183 203 227 249 234 188 179
158 170 172 185 180 192 208 197 196 210 221 218 235 176 169 204 196 206 219 227 223 222 209 196 197 195 184 176 174 172 182 189 194 198 203 199 204 201 192 198 201 190 175
167 168 192 209 191 203 200 206 215 214 211 204 204 207 192 210 221 221 225 230 222 221 203 193 192 198 196 191 185 182 180 199 202 181 196 204 191 194 187 188 183 176 192
176 183 199 212 205 216 231 204 218 223 224 223 205 193 197 211 223 236 237 241 233 215 195 192 191 200 199 198 195 198 209 216 187 199 185 180 193 189 179 179 184 187 163
182 196 201 221 218 213 206 222 235 231 221 207 209 208 203 203 218 232 237 234 221 205 214 213 199 209 212 206 200 200 213 220 207 184 174 176 186 182 178 169 167 161 143
177 205 219 235 225 215 204 199 213 226 223 222 217 209 209 205 212 214 225 227 231 229 221 210 211 216 217 214 212 206 200 206 197 194 167 167 172 177 177 178 177 162 152